Home > Weather > Worcester > Past weeks

Flag for USA Weather for the Past 2 Weeks in Worcester, Massachusetts, USA

Now
39 °F

Light rain. Low clouds.


Feels Like: 31 °F
Forecast: 40 / 46 °F
Wind: 15 mph from Northeast

Location: Worcester Regional Airport

Current Time: May 4, 2016 at 11:46:33 PM

Latest Report: May 4, 2016 at 10:54 PM


Visibility: 8 mi

Pressure: 29.79 "Hg

Humidity: 96%

Dew Point: 38 °F

Location of WorcesterLocation

Historic Weather in Worcester — Graph

°F

Worcester Temperature Yesterday

Maximum temperature yesterday: 48 °F (at 3:01 PM)
Minimum temperature yesterday: 43 °F (at 11:54 PM)
Average temperature yesterday: 46 °F

High & Low Weather Summary for the Past Weeks

 TemperatureHumidityPressure
High136 °F (Apr 22, 6:54 AM)100% (Apr 27, 4:00 AM)30.26 "Hg (Apr 27, 4:00 AM)
Low32 °F (Apr 27, 4:00 AM)13% (Apr 24, 4:54 PM)29.73 "Hg (Apr 26, 4:04 PM)
Average47 °F59%30.00 "Hg
* Reported Apr 19 10:54 PM — May 4 10:54 PM, Worcester, Weather by CustomWeather, © 2016

Note: Actual official high and low records may vary slightly from our data, if they occured in-between our weather recording intervals... More about our weather records

Advertising

Worcester Weather History for the Previous 24 Hours

Scroll right to see more
 ConditionsComfort  
Time TempWeatherWind HumidityBarometerVisibility
10:54 PM
Wed, May 4
39 °FLight rain. Low clouds.15 mph96%29.79 "Hg8 mi
9:54 PM40 °FRain. Fog.9 mph93%29.83 "Hg6 mi
8:54 PM40 °FLight rain. Low clouds.12 mph93%29.80 "Hg10 mi
7:54 PM41 °FLight rain. Fog.14 mph93%29.81 "Hg2 mi
6:54 PM42 °FLow clouds.16 mph89%29.81 "Hg10 mi
5:54 PM43 °FMore clouds than sun.10 mph86%29.80 "Hg10 mi
4:54 PM44 °FMostly cloudy.13 mph85%29.80 "Hg10 mi
4:03 PM44 °FLight rain. Cloudy.14 mph89%29.79 "Hg10 mi
3:54 PM44 °FLight rain. Cloudy.13 mph89%29.80 "Hg9 mi
2:54 PM44 °FRain. Overcast.13 mph82%29.82 "Hg5 mi
1:54 PM45 °FLight rain. Mostly cloudy.12 mph80%29.83 "Hg10 mi
12:54 PM46 °FMostly cloudy.10 mph77%29.86 "Hg10 mi
11:54 AM45 °FOvercast.12 mph82%29.87 "Hg10 mi
10:54 AM45 °FMostly cloudy.7 mph82%29.88 "Hg10 mi
9:54 AM44 °FLow clouds.10 mph89%29.86 "Hg10 mi
8:54 AM44 °FLow clouds.10 mph85%29.87 "Hg10 mi
7:54 AM43 °FLow clouds.9 mph89%29.87 "Hg10 mi
6:54 AM42 °FLow clouds.7 mph92%29.87 "Hg9 mi
5:54 AM42 °FLow clouds.7 mph92%29.85 "Hg10 mi
4:54 AM42 °FMostly cloudy.5 mph92%29.85 "Hg10 mi
3:54 AM43 °FMostly cloudy.3 mph93%29.84 "Hg8 mi
2:54 AM43 °FOvercast.3 mph93%29.85 "Hg8 mi
1:54 AM43 °FMostly cloudy.3 mph93%29.85 "Hg10 mi
1:02 AM43 °FOvercast.3 mph93%29.84 "Hg10 mi
12:54 AM43 °FMostly cloudy.5 mph93%29.85 "Hg10 mi
11:54 PM
Tue, May 3
43 °FOvercast.No wind89%29.88 "Hg10 mi
Weather by CustomWeather, © 2016

See weather overviewHow to use our weather pages